Powrót do katalogu

SL-8 R/B

AktywnyLEO
NORAD 7686·ROCKET BODY·🇷🇺 Russia

Wystrzelony Feb 28, 1975 z Plesetsk Cosmodrome

Loading…

Następne Przeloty (najbliższe 24 godziny)

TLE

ŚwieżeSource: Space-Track

Epoka: Sep 14, 2026, 21:51 UTC

1 07686U 75016J   26257.91096164  .00000064  00000-0  71900-3 0  9994
2 07686  73.9998  52.5284 0163912 157.2515 278.7756 12.21129367297192

Śledź SL-8 R/B w czasie rzeczywistym z AllMySat

Download on the App Store